Simultaneous Nadir Overpasses (SNOs) Predictions

Prediction of SNOs between AQUA and METOP-A Satellite Orbit:

Table of predicted SNOs for the next 14.0 days since TLE Epoch: 8/31/2018
Index Date (AQUA) Time (AQUA) Lat,Lon (AQUA) SZA (AQUA ) Date (METOP-A) Time (METOP-A) Lat,Lon (METOP-A) SZA (METOP-A ) Distance(km) Time Diff (sec)
1 09/02/2018 08:00:29 74.48, 52.73 66.64 09/02/2018 07:59:34 74.48, 52.63 66.65 2.97 55
2 09/02/2018 08:49:56 -74.58,-139.86 113.25 09/02/2018 08:50:14 -74.58,-139.79 113.25 2.24 18
3 09/02/2018 09:39:36 75.19, 26.19 67.44 09/02/2018 09:40:41 75.18, 29.20 67.32 85.62 65
4 09/05/2018 03:34:42 74.52, 119.09 67.70 09/05/2018 03:33:50 74.50, 119.07 67.69 2.68 52
5 09/05/2018 04:24:08 -74.56, -73.38 112.24 09/05/2018 04:24:31 -74.55, -73.47 112.26 3.40 23
6 09/07/2018 23:08:53 74.51,-174.44 68.73 09/07/2018 23:08:05 74.51,-174.50 68.74 1.67 48
7 09/07/2018 23:58:20 -74.60, -7.03 111.16 09/07/2018 23:58:45 -74.61, -6.91 111.16 3.63 25
8 09/10/2018 18:43:05 74.50,-107.98 69.78 09/10/2018 18:42:21 74.52,-108.06 69.80 2.91 44
9 09/10/2018 19:32:32 -74.59, 59.44 110.11 09/10/2018 19:33:02 -74.57, 59.40 110.14 3.17 30
10 09/13/2018 14:17:18 74.55, -41.65 70.90 09/13/2018 14:16:37 74.52, -41.64 70.88 3.21 41
11 09/13/2018 15:06:44 -74.59, 125.90 109.05 09/13/2018 15:07:18 -74.58, 125.83 109.07 2.52 34




NCC Satellite Simultaneous Nadir Overpasses (SNOs) Prediction Service
